Kahului, HI

4:33 PM HST on July 23, 2016 (GMT -1000)
Kahului

Weather History for PHOG - September, 2014

Change the Weather History Date:

Thursday, September 4, 2014

  Actual Average Record
Temperature  
Mean Temperature 80 °F 80 °F  
Max Temperature 88 °F 88 °F 92 °F (1968)
Min Temperature 72 °F 71 °F 62 °F (1951)
Degree Days  
Heating Degree Days 0 0  
Month to date heating degree days 0 0  
Since 1 July heating degree days 0 0  
Cooling Degree Days 15 14  
Month to date cooling degree days 65 58  
Year to date cooling degree days 2953 2600  
Growing Degree Days 30 (Base 50)    
Moisture  
Dew Point 68 °F    
Average Humidity 69    
Maximum Humidity 84    
Minimum Humidity 53    
Precipitation  
Precipitation 0.00 in 0.01 in 0.30 in (1992)
Month to date precipitation T 0.04  
Year to date precipitation 15.65 10.74  
Snow  
Snow 0.00 in - - ()
Month to date snowfall 0.0  
Since 1 July snowfall 0.0  
Since 1 September snowfall 0.0  
Snow Depth 0.00 in    
Sea Level Pressure  
Sea Level Pressure 29.97 in    
Wind  
Wind Speed 13 mph (NNE)    
Max Wind Speed 23 mph    
Max Gust Speed 28 mph    
Visibility 10 miles    
Events      
T = Trace of Precipitation, MM = Missing Value Source: NWS Daily Summary

Daily Weather History Graph

Daily Weather History Graph

Search for Another Location

Airport or City:

Trip Planner

Search our weather history database for the weather conditions in past years. The results will help you decide how hot, cold, wet, or windy it might be!

Date:

Astronomy

Sep. 04, 2014 Rise Set
Actual Time 6:10 AM HST 6:38 PM HST
Civil Twilight 5:47 AM HST 7:01 PM HST
Nautical Twilight 5:21 AM HST 7:27 PM HST
Astronomical Twilight 4:55 AM HST 7:53 PM HST
Moon 3:04 PM HST (9/4) 1:35 AM HST (9/4)
Length of Visible Light 13h 13m
Length of Day
12h 28m
Waxing Gibbous, 76% of the Moon is Illuminated
Sep 4
Waxing Gibbous
Sep 8
Full
Sep 15
Last Quarter
Sep 23
New
Oct 1
First Quarter

Hourly Weather History & Observations

Time (HST) Temp. Heat Index Dew Point Humidity Pressure Visibility Wind Dir Wind Speed Gust Speed Precip Events Conditions
12:54 AM 75.9 °F - 69.1 °F 79% 29.97 in 10.0 mi NNE 10.4 mph - N/A   Clear
1:54 AM 75.0 °F - 66.9 °F 76% 29.96 in 10.0 mi NNE 10.4 mph - N/A   Clear
2:54 AM 75.0 °F - 66.9 °F 76% 29.95 in 10.0 mi NNE 6.9 mph - N/A   Clear
3:54 AM 75.0 °F - 66.9 °F 76% 29.95 in 10.0 mi NE 8.1 mph - N/A   Clear
4:54 AM 73.0 °F - 66.0 °F 79% 29.96 in 10.0 mi NNE 5.8 mph - N/A   Clear
5:54 AM 72.0 °F - 66.0 °F 81% 29.96 in 10.0 mi Calm Calm - N/A   Partly Cloudy
6:54 AM 75.0 °F - 66.0 °F 73% 29.97 in 10.0 mi North 8.1 mph - N/A   Clear
7:54 AM 81.0 °F 83.3 °F 66.9 °F 62% 29.98 in 10.0 mi NNE 11.5 mph - N/A   Partly Cloudy
8:54 AM 84.0 °F 87.0 °F 68.0 °F 58% 30.00 in 10.0 mi NE 13.8 mph - N/A   Partly Cloudy
9:54 AM 84.9 °F 88.2 °F 68.0 °F 57% 30.00 in 10.0 mi NE 17.3 mph - N/A   Scattered Clouds
10:54 AM 86.0 °F 90.1 °F 69.1 °F 57% 30.00 in 10.0 mi NNE 17.3 mph - N/A   Scattered Clouds
11:54 AM 87.1 °F 91.3 °F 69.1 °F 55% 29.98 in 10.0 mi NNE 20.7 mph - N/A   Scattered Clouds
12:54 PM 87.1 °F 90.6 °F 68.0 °F 53% 29.97 in 10.0 mi NNE 20.7 mph - N/A   Scattered Clouds
1:54 PM 88.0 °F 91.4 °F 68.0 °F 51% 29.96 in 10.0 mi NNE 20.7 mph - N/A   Scattered Clouds
2:54 PM 87.1 °F 90.6 °F 68.0 °F 53% 29.94 in 10.0 mi NNE 20.7 mph - N/A   Scattered Clouds
3:54 PM 84.9 °F 88.2 °F 68.0 °F 57% 29.93 in 10.0 mi NNE 20.7 mph - N/A   Scattered Clouds
4:54 PM 84.0 °F 87.0 °F 68.0 °F 58% 29.94 in 10.0 mi NNE 17.3 mph - N/A   Scattered Clouds
5:54 PM 81.0 °F 84.1 °F 69.1 °F 67% 29.95 in 10.0 mi NE 16.1 mph - N/A   Scattered Clouds
6:54 PM 80.1 °F 82.7 °F 68.0 °F 67% 29.97 in 10.0 mi NE 11.5 mph - N/A   Scattered Clouds
7:54 PM 79.0 °F - 69.1 °F 72% 29.99 in 10.0 mi NE 8.1 mph - N/A   Scattered Clouds
8:54 PM 78.1 °F - 69.1 °F 74% 30.01 in 10.0 mi NE 13.8 mph 18.4 mph N/A   Scattered Clouds
9:54 PM 75.9 °F - 70.0 °F 82% 30.02 in 10.0 mi NW 6.9 mph - N/A   Scattered Clouds
10:54 PM 77.0 °F - 69.1 °F 76% 30.01 in 10.0 mi North 6.9 mph - N/A   Partly Cloudy
11:54 PM 77.0 °F - 70.0 °F 79% 29.99 in 10.0 mi NNE 5.8 mph - N/A   Scattered Clouds